ハインズ彗星

C/2017 T1 ( Heinze )

English version
Home page
Updated on November 23, 2017

---------------------------------------------------------------------

・ プロフィール

発見日 2017年10月2日
発見光度 18.2等
発見者 Aren Heinze (Asteroid Terrestrial-impact Last Alert System (ATLAS) search program)

・ 写真集

・ 軌道要素

Epoch 2018 Feb. 11.0 TT = JDT 2458160.5
T 2018 Feb. 21.71216 TT                                 MPCW
q   0.5807430            (2000.0)            P               Q
z  -0.0008932      Peri.   96.90703     +0.14096158     +0.19788617
 +/-0.0008076      Node   102.32179     -0.47677681     -0.84514441
e   1.0005187      Incl.   96.82744     +0.86764838     -0.49656015
From 116 observations 2017 Sept. 28-Nov. 2, mean residual 0".7.

・ 星図

・ 光度変化

        m1 = 11.5 + 5 logΔ + 10.0 log r

---------------------------------------------------------------------

軌道要素はM.P.E.C. 2017-V13に掲載されたものです。
星図はステラナビゲータ Ver.10 (アストロアーツ) で作成したものです。
光度グラフはComet for Windowsで作成したものです。

---------------------------------------------------------------------

Copyright(C) Seiichi Yoshida (comet@aerith.net). All rights reserved.